Location: Glums�
(55.3568°N, 11.6856°E)
Time: 19:49:11
(UTC+00:00)

FALCON 9 DEB - Pass Details

Date: 07 June 2020
Orbit: 428 x 442 km, 53.0° (Epoch: 05 July)

Event Time Altitude Azimuth Distance (km) Brightness Sun altitude
Rises 00:35:05 0° 275° (W) 2,403 6.7 -9.9°
Reaches altitude 10° 00:37:14 10° 269° (W) 1,537 5.7 -9.8°
Maximum altitude 00:40:33 46° 195° (SSW) 595 3.4 -9.6°
Drops below altitude 10° 00:43:53 10° 121° (ESE) 1,541 5.8 -9.4°
Sets 00:46:02 0° 115° (ESE) 2,411 6.9 -9.3°
